FREGAT R/B, 40891

Orbit data source: Space-Track

FREGAT R/B, 40891 is space debris originally from a launch on Fri, 11 Sep 2015 UTC launched from the French Guiana (FRGUI). Debris objects in space refer to the collection of defunct objects orbiting the Earth. Examples of debris include non-operational satellites, rocket bodies, and fragments generated from explosions, collisions, or faulty payload assembly.

Loading next visibility...
Identifier
40891, 2015-045C
Orbit
Active
Last TLE update
22 hours ago
Origin
Manufacturer
Lavochkin
Mission
Spacecraft
Bus & Motor
FREGAT, Unknown motor
Mass
1,050 kg wet, 1,050 kg dry
Launch date (UTC)
2015-09-11 (10 years ago)
Launch vehicle
Unknown
Launch site
French Guiana (FRGUI)
Object type
Payload
Rocket body
Debris
Shape & HBR
Irr, 3.3 m
Radar Cross Section
11.055 m²

Expand to show TLE details & history

TLE from 22 hours ago
0 FREGAT R/B
1 40891U 15045C   25186.00032161  .00000050  00000-0  00000-0 0  9997
2 40891  54.9278 234.1939 0027890 230.8295 129.0084  1.67827940 60177
Epoch: 2025-07-05T00:00Z
TLE epoch observation values (Epoch: 2025-07-05T00:00:27.787Z)
Latitude
0.00002°
Longitude
-49.15247°
Altitude
23,585.423 km
Speed
3.644 km/s
True Right ascension
15h 36m 49s
True Declination
0° 00' 00"
Sunlit
Object was in daylight at epoch
Visualization orbit readout
Latitude
-2.30331°
Longitude
132.44041°
Altitude
23,477.098 km
Speed
3.657 km/s
Apparent Right ascension
03h 05m 38s
Apparent Declination
-9° 58' 07"
Sunlit
Object is in daylight
Visualization observer readout
Local Sidereal Time
09:31:15
Azimuth
266.361° W
Elevation
-11.267°
Doppler factor
1
Orbital elements
Apogee altitude
23,615.932 km
Perigee altitude
23,449.091 km
Semi-major axis
29,910.649 km
Eccentricity
0.00279
Inclination
54.9278°
RAAN
234.1939°
Arg. of periapsis
230.8295°
True anomaly
Unknown
Mean anomaly
129.0084°
Eccentric anomaly
Unknown
Mean motion
0.41957 °/min
Orbital period
858.02 mins
BSTAR
0
Loading maneuver chart data...
Loading SW <> Apogee altitude chart data...
Loading historical data...
Loading historical data...
Loading historical data...
Loading historical data...
Loading historical data...
Loading historical data...
Loading historical data...
Other satellites on launch #45 in the year 2015 (2015-09-11 UTC)

FREGAT R/B Visibility forecast

Observer location: undefined°, undefined°

Span
Click to sort rows by Start time (UTC) header in descending order
Start Az.
Max El. time (UTC)
Max El. Az.
Max El.
End time (UTC)
End Az.
515 mins2025-07-06 03:18:12.906Z194.458° SSW2025-07-06 06:53:12.906Z306.467° NW44.726°2025-07-06 11:53:12.906Z113.689° SE
|